Estación de San José

Ultimos registro cada 15 minutos 73
Estación Fecha / Hora Temperatura Humedad Lluvia Velocidad Dirección Radiación Presion
73 San José 03-05-2026 18:15 14,6 84 0 0 129 0 1020
72 San José 03-05-2026 18:00 15,3 83 0 0 129 0 1020,2
71 San José 03-05-2026 17:45 16,1 80 0 0 129 16 1020,1
70 San José 03-05-2026 17:30 16,9 77 0 0 129 19 1020,4
69 San José 03-05-2026 17:15 17,7 75 0 0 129 32 1020,3
68 San José 03-05-2026 17:00 18,3 70 0 0 129 62 1020,4
67 San José 03-05-2026 16:45 18,7 64 0 0 129 100 1019,8
66 San José 03-05-2026 16:30 18,9 65 0 0 129 190 1020
65 San José 03-05-2026 16:15 18,6 70 0 0 129 323 1020
64 San José 03-05-2026 16:00 17,9 73 0 0 122 234 1020,2
63 San José 03-05-2026 15:45 17,2 74 0 0 122 353 1020
62 San José 03-05-2026 15:30 16,4 78 0 0 122 158 1020
61 San José 03-05-2026 15:15 16,4 78 0 0 122 158 1020
60 San José 03-05-2026 15:00 16,3 77 0 0 122 139 1019,9
59 San José 03-05-2026 14:45 16 79 0 0 122 125 1020,2
58 San José 03-05-2026 14:30 15,7 78 0 0 122 163 1020,2
57 San José 03-05-2026 14:15 15,4 79 0 0 110 125 1020,1
56 San José 03-05-2026 14:00 15,4 78 0 0 113 97 1020,1
55 San José 03-05-2026 13:45 15,4 78 0 0 338 104 1020,4
54 San José 03-05-2026 13:30 15,5 78 0 0 338 149 1020,6
53 San José 03-05-2026 13:15 15,5 78 0 0 338 149 1020,6
52 San José 03-05-2026 13:00 15,6 76 0 0 338 171 1020,5
51 San José 03-05-2026 12:45 15,6 76 0 0 341 163 1020,4
50 San José 03-05-2026 12:30 15,7 74 0 0 342 171 1020,4
49 San José 03-05-2026 12:15 15,4 75 0 0 293 218 1020,6
48 San José 03-05-2026 12:00 15,1 75 0 0 292 213 1020,9
47 San José 03-05-2026 11:45 14,8 76 0 0 292 223 1020,9
46 San José 03-05-2026 11:30 15,1 75 0 0 295 211 1021,3
45 San José 03-05-2026 11:15 15,1 75 0 0 295 211 1021,3
44 San José 03-05-2026 11:00 15,6 75 0 0 295 223 1021,4
43 San José 03-05-2026 10:45 15,2 77 0 0 5 425 1021
42 San José 03-05-2026 10:15 14,4 79 0 0 14 410 1020,9
41 San José 03-05-2026 10:00 12,7 87 0 0 120 424 1021,3
40 San José 03-05-2026 09:45 11,7 89 0 0 132 397 1021,2
39 San José 03-05-2026 09:30 10,8 92 0 0 132 325 1021,3
38 San José 03-05-2026 09:15 9,4 95 0 0 130 232 1021,1
37 San José 03-05-2026 09:00 8,3 96 0 0 130 190 1020,8
36 San José 03-05-2026 08:45 7,5 96 0 0 127 51 1020,9
35 San José 03-05-2026 08:30 6,6 95 0 0 133 35 1020,7
34 San José 03-05-2026 08:15 5,9 95 0 0 137 37 1020,7
33 San José 03-05-2026 08:00 4,5 95 0,2 0 137 46 1020,8
32 San José 03-05-2026 07:45 3,9 95 0 0 124 18 1020,5
31 San José 03-05-2026 07:30 3,3 94 0 0 146 7 1020,2
30 San José 03-05-2026 07:15 2,9 94 0 0 146 0 1019,7
29 San José 03-05-2026 07:00 2,9 94 0 0 146 0 1019,6
28 San José 03-05-2026 06:45 2,5 94 0 0 146 0 1019,5
27 San José 03-05-2026 06:30 2,6 94 0 0 146 0 1019,5
26 San José 03-05-2026 06:15 2,1 93 0 0 146 0 1019,4
25 San José 03-05-2026 06:00 2,4 93 0 0 146 0 1019,5
24 San José 03-05-2026 05:45 2,4 93 0 0 146 0 1019,3
23 San José 03-05-2026 05:30 2,1 93 0 0 146 0 1019,3
22 San José 03-05-2026 05:15 2,6 92 0 0 146 0 1019,7
21 San José 03-05-2026 05:00 2,9 92 0 0 146 0 1019,7
20 San José 03-05-2026 04:45 3,9 92 0 0 146 0 1019,7
19 San José 03-05-2026 04:30 4,3 92 0 0 146 0 1019,9
18 San José 03-05-2026 04:15 5,1 92 0 0 146 0 1019,9
17 San José 03-05-2026 04:00 5,8 94 0 0 146 0 1020
16 San José 03-05-2026 03:45 5,5 93 0 0 158 0 1020,1
15 San José 03-05-2026 03:30 5,9 93 0 0 159 0 1020
14 San José 03-05-2026 03:15 6,2 95 0 0 159 0 1020,1
13 San José 03-05-2026 03:00 5,7 94 0 0 117 0 1020,3
12 San José 03-05-2026 02:45 5,6 94 0 0 107 0 1020,3
11 San José 03-05-2026 02:30 5,9 94 0 0 98 0 1020,3
10 San José 03-05-2026 02:15 6,2 95 0 0 98 0 1020,2
9 San José 03-05-2026 02:00 6,2 95 0 0 126 0 1020,5
8 San José 03-05-2026 01:45 5,6 94 0 0 130 0 1020,5
7 San José 03-05-2026 01:30 5,4 94 0 0 130 0 1020,1
6 San José 03-05-2026 01:15 5,3 94 0 0 130 0 1019,9
5 San José 03-05-2026 01:00 5,1 94 0 0 130 0 1019,7
4 San José 03-05-2026 00:45 5,1 94 0 0 185 0 1019,8
3 San José 03-05-2026 00:30 4,6 94 0 0 185 0 1020
2 San José 03-05-2026 00:15 3,8 92 0 0 185 0 1020
1 San José 03-05-2026 00:00 4,1 93 0 0 185 0 1020,3